Flag for Germany Weather past 2 weeks in Seevetal, Lower Saxony, Germany

Now
54 °F

Clear.


Feels Like: 53 °F
Forecast: 52 / 64 °F
Wind: 5 mph from South

Location: Hamburg-Fuhlsbuettel

Current Time: Aug 22, 2014 at 12:56:50 AM

Latest Report: Aug 22, 2014 at 12:20 AM


Visibility: 10 mi

Pressure: 29.92 "Hg

Humidity: 88%

Dew point: 50 °F

Location of SeevetalLocation

Historic Weather in Seevetal — Graph

°F

Seevetal temperature yesterday

Maximum temperature yesterday: 64 °F (at 3:50 PM)
Minimum temperature yesterday: 46 °F (at 4:20 AM)
Average temperature yesterday: 56 °F

Past Weeks' High & Low Weather Summary

 TemperatureHumidityPressure
High79 °F (Aug 8, 3:20 PM)100% (Aug 7, 11:20 PM)29.98 "Hg (Aug 7, 11:20 PM)
Low46 °F (Aug 21, 4:20 AM)34% (Aug 8, 3:50 PM)29.47 "Hg (Aug 18, 10:20 AM)
Average61 °F76%29.79 "Hg
* Reported Aug 6 11:20 PM — Aug 21 11:50 PM, Seevetal, Weather by CustomWeather, © 2014

Note: Actual official high and low records may vary slightly from our data, if they occured in-between our weather recording intervals... More about our weather records

Advertising

Seevetal weather history for previous 24 hours

 ConditionsComfort  
Time TempWeatherWind HumidityBarometerVisibility
11:50 PM
Aug 21
55 °FClear.5 mph88%29.92 "Hg10 mi
11:20 PM55 °FClear.5 mph88%29.92 "Hg10 mi
10:50 PM55 °FPassing clouds.2 mph88%29.92 "HgN/A
10:20 PM55 °FLight rain. Passing clouds.8 mph82%29.95 "HgN/A
9:50 PM57 °FLight rain. Clear.3 mph72%29.92 "HgN/A
9:20 PM57 °FBroken clouds.6 mph72%29.92 "HgN/A
8:50 PM61 °FLight rain. Broken clouds.6 mph59%29.92 "HgN/A
8:20 PM59 °FPartly sunny.6 mph63%29.92 "HgN/A
7:50 PM61 °FPartly sunny.6 mph59%29.92 "HgN/A
7:20 PM63 °FPartly sunny.10 mph52%29.92 "HgN/A
6:50 PM63 °FScattered clouds.12 mph52%29.92 "HgN/A
6:20 PM63 °FScattered clouds.14 mph52%29.92 "HgN/A
5:50 PM64 °FBroken clouds.14 mph49%29.92 "HgN/A
5:20 PM63 °FPartly sunny.12 mph52%29.92 "HgN/A
4:50 PM64 °FBroken clouds.15 mph49%29.92 "HgN/A
4:20 PM64 °FBroken clouds.16 mph49%29.92 "HgN/A
3:50 PM64 °FBroken clouds.13 mph52%29.92 "HgN/A
3:20 PM63 °FScattered clouds.12 mph52%29.95 "HgN/A
2:50 PM63 °FScattered clouds.12 mph56%29.95 "HgN/A
2:20 PM63 °FScattered clouds.14 mph56%29.95 "HgN/A
1:50 PM63 °FScattered clouds.13 mph56%29.95 "HgN/A
1:20 PM61 °FScattered clouds.13 mph59%29.95 "HgN/A
12:50 PM61 °FScattered clouds.15 mph59%29.95 "HgN/A
12:20 PM61 °FPartly sunny.10 mph59%29.95 "HgN/A
11:50 AM61 °FScattered clouds.12 mph63%29.95 "HgN/A
11:20 AM59 °FScattered clouds.14 mph68%29.95 "HgN/A
10:50 AM57 °FPassing clouds.13 mph72%29.95 "HgN/A
10:20 AM57 °FPassing clouds.12 mph72%29.95 "HgN/A
9:50 AM55 °FPassing clouds.10 mph77%29.95 "HgN/A
9:20 AM55 °FPassing clouds.9 mph77%29.95 "HgN/A
8:50 AM54 °FPassing clouds.9 mph82%29.95 "HgN/A
8:20 AM52 °FPassing clouds.7 mph88%29.95 "HgN/A
7:50 AM50 °FPassing clouds.6 mph94%29.95 "HgN/A
7:20 AM48 °FPassing clouds.8 mph94%29.95 "HgN/A
6:50 AM46 °FPassing clouds.6 mph100%29.95 "HgN/A
6:20 AM46 °FFog.6 mph93%29.95 "HgN/A
5:50 AM46 °FFog.6 mph93%29.95 "HgN/A
5:20 AM46 °FClear.5 mph93%29.95 "Hg10 mi
4:50 AM46 °FClear.5 mph93%29.95 "Hg10 mi
4:20 AM46 °FClear.7 mph100%29.95 "Hg10 mi
3:50 AM48 °FClear.5 mph94%29.95 "Hg10 mi
3:20 AM48 °FClear.8 mph94%29.95 "Hg10 mi
2:50 AM48 °FClear.7 mph94%29.95 "Hg10 mi
2:20 AM48 °FClear.7 mph94%29.95 "Hg10 mi
1:50 AM48 °FClear.8 mph94%29.95 "Hg10 mi
1:20 AM50 °FClear.7 mph94%29.95 "Hg10 mi
12:50 AM50 °FClear.9 mph94%29.92 "Hg10 mi
12:20 AM48 °FClear.8 mph94%29.92 "Hg10 mi
Weather by CustomWeather, © 2014

See weather overviewHow to use our weather pages